Waarnemingen

Advertentie
Mijn weer
Bierset/Liege, België (6478): temperatuur & dauwpunt: 08.08.2018 17:00:00 - 14.08.2018 17:00:00 (CEST)Bierset/Liege, België (6478): windsnelheid & windstoten: 08.08.2018 17:00:00 - 14.08.2018 17:00:00 (CEST)Bierset/Liege, België (6478): windrichting: 08.08.2018 17:00:00 - 14.08.2018 17:00:00 (CEST)Bierset/Liege, België (6478): luchtdruk: 08.08.2018 17:00:00 - 14.08.2018 17:00:00 (CEST)Bierset/Liege, België (6478): zicht: 08.08.2018 17:00:00 - 14.08.2018 17:00:00 (CEST)
Datum & Tijd tt [°C] td [°C] ff [km/u] ff [kn] fx [km/u] fx [kn] dd ppp [hPa] vv [km]
14.08.2018 17:00:00 20,4 15,8 11 6 - - W 1017,0 10
14.08.2018 16:00:00 18,8 16,2 9 5 29 16 WNW 1017,1 10
14.08.2018 15:00:00 18,1 16,1 16 9 32 18 WNW 1016,7 10
14.08.2018 14:00:00 20,1 14,9 21 11 - - WZW 1016,1 10
14.08.2018 13:00:00 19,7 15,6 18 10 25 14 WZW 1015,8 10
14.08.2018 12:00:00 19,4 16,1 18 10 29 16 W 1015,5 10
14.08.2018 11:00:00 18,4 16,3 15 8 - - WZW 1015,3 7
14.08.2018 10:00:00 17,1 15,7 16 9 25 14 WZW 1014,9 7
14.08.2018 09:00:00 16,3 15,5 18 10 25 14 WZW 1014,4 4,0
14.08.2018 08:00:00 15,6 15,1 18 10 - - WZW 1013,7 2,2
14.08.2018 07:00:00 15,5 14,7 16 9 25 14 WZW 1013,1 6
14.08.2018 06:00:00 15,4 14,6 18 10 29 16 ZW 1012,4 10
14.08.2018 05:00:00 15,2 14,2 18 10 - - ZW 1012,2 10
14.08.2018 04:00:00 15,1 14,0 18 10 25 14 ZW 1012,1 10
14.08.2018 03:00:00 15,2 14,1 16 9 22 12 ZW 1011,8 10
14.08.2018 02:00:00 15,3 14,4 18 10 - - ZW 1011,6 10
14.08.2018 01:00:00 16,0 15,1 15 8 22 12 ZW 1011,0 10
14.08.2018 00:00:00 16,2 15,2 15 8 22 12 WZW 1010,5 10
13.08.2018 23:00:00 16,8 15,7 11 6 - - ZW 1010,0 10
13.08.2018 22:00:00 16,8 15,5 15 8 22 12 ZW 1009,6 10
13.08.2018 21:00:00 16,7 15,9 13 7 25 14 WZW 1009,1 10
13.08.2018 20:00:00 17,7 16,3 13 7 - - WZW 1008,6 10
13.08.2018 19:00:00 18,0 15,0 16 9 25 14 WZW 1008,4 8
13.08.2018 18:00:00 19,8 16,3 13 7 32 18 ZW 1008,0 10
13.08.2018 17:00:00 16,9 15,9 22 12 - - W 1008,1 10
13.08.2018 16:00:00 19,8 15,0 21 11 43 23 W 1007,7 10
13.08.2018 15:00:00 19,1 14,7 31 17 43 23 ZW 1007,7 10
13.08.2018 14:00:00 20,3 16,1 28 15 - - ZW 1007,1 10
13.08.2018 13:00:00 17,4 16,5 18 10 47 25 ZZW 1007,4 10
13.08.2018 12:00:00 19,4 14,5 28 15 40 21 ZZW 1007,2 8
13.08.2018 11:00:00 18,9 15,8 16 9 - - Z 1007,3 10
13.08.2018 10:00:00 18,3 15,8 18 10 36 19 ZZW 1007,6 10
13.08.2018 09:00:00 17,1 15,3 22 12 40 21 ZZW 1007,5 10
13.08.2018 08:00:00 16,0 15,0 13 7 - - Z 1006,8 10
13.08.2018 07:00:00 15,9 15,2 15 8 36 19 ZZO 1006,4 10
13.08.2018 06:00:00 16,0 15,0 13 7 25 14 Z 1008,2 9
13.08.2018 05:00:00 17,2 14,7 11 6 - - ZW 1008,3 10
13.08.2018 04:00:00 20,4 10,7 11 6 29 16 ZW 1007,3 10
13.08.2018 03:00:00 21,6 8,5 13 7 22 12 ZZO 1006,9 10
13.08.2018 02:00:00 21,0 8,8 11 6 - - ZO 1007,8 10
13.08.2018 01:00:00 21,3 8,9 13 7 29 16 ZO 1008,3 10
13.08.2018 00:00:00 21,2 9,1 13 7 29 16 ZO 1009,0 10
12.08.2018 23:00:00 21,5 8,7 11 6 - - ZO 1009,6 10
12.08.2018 22:00:00 22,6 8,0 9 5 25 14 ZZO 1010,1 10
12.08.2018 21:00:00 24,1 7,0 8 4 18 10 Z 1010,2 10
12.08.2018 20:00:00 24,8 7,3 11 6 - - Z 1010,4 10
12.08.2018 19:00:00 26,4 7,4 16 9 29 16 ZZW 1010,7 10
12.08.2018 18:00:00 26,3 6,8 16 9 29 16 ZZW 1011,3 10
12.08.2018 17:00:00 26,5 7,1 13 7 - - ZZW 1012,0 10
12.08.2018 16:00:00 26,8 7,3 18 10 36 19 ZZW 1012,7 10
12.08.2018 15:00:00 25,7 7,6 13 7 32 18 ZZW 1013,6 10
12.08.2018 14:00:00 25,0 8,4 15 8 - - Z 1014,5 10
12.08.2018 13:00:00 24,1 8,4 11 6 29 16 ZZW 1015,5 10
12.08.2018 12:00:00 22,8 7,7 21 11 36 19 ZZW 1016,1 10
12.08.2018 11:00:00 21,7 7,7 21 11 - - Z 1016,7 10
12.08.2018 10:00:00 19,4 7,9 15 8 36 19 Z 1017,3 10
12.08.2018 09:00:00 17,1 7,5 13 7 22 12 Z 1017,8 10
12.08.2018 08:00:00 14,8 7,6 15 8 - - ZZO 1018,2 10
12.08.2018 07:00:00 14,0 7,3 16 9 29 16 ZZO 1018,6 10
12.08.2018 06:00:00 13,9 7,6 14 8 18 10 ZZO 1018,8 30
12.08.2018 05:00:00 14,2 7,6 16 9 - - ZZO 1019,4 10
12.08.2018 04:00:00 14,4 8,0 13 7 32 18 ZZO 1020,0 10
12.08.2018 03:00:00 14,8 8,4 13 7 32 18 ZZO 1020,5 10
12.08.2018 02:00:00 15,8 7,8 11 6 - - ZO 1020,9 10
12.08.2018 01:00:00 17,1 8,9 11 6 22 12 ZZO 1021,3 10
12.08.2018 00:00:00 17,4 7,1 2 1 4 2 - 1021,7 10
11.08.2018 23:00:00 17,1 6,8 2 1 - - - 1022,0 10
11.08.2018 22:00:00 18,0 7,1 4 2 7 4 N 1022,1 10
11.08.2018 21:00:00 18,8 7,4 5 3 18 10 NNW 1021,9 10
11.08.2018 20:00:00 20,3 6,4 11 6 - - WNW 1021,9 10
11.08.2018 19:00:00 21,3 6,0 11 6 25 14 W 1022,1 10
11.08.2018 18:00:00 21,4 5,8 15 8 25 14 W 1022,1 10
11.08.2018 17:00:00 21,3 5,3 8 4 - - - 1022,5 10
11.08.2018 16:00:00 21,4 6,2 11 6 25 14 NW 1022,9 10
11.08.2018 15:00:00 20,1 5,8 13 7 29 16 WNW 1023,4 10
11.08.2018 14:00:00 20,2 5,9 11 6 - - W 1023,7 30
11.08.2018 13:00:00 18,6 6,6 16 9 29 16 W 1023,9 10
11.08.2018 12:00:00 17,8 7,2 16 9 29 16 WZW 1024,0 10
11.08.2018 11:00:00 17,2 8,1 16 9 - - W 1024,2 10
11.08.2018 10:00:00 15,7 8,3 16 9 25 14 W 1024,1 10
11.08.2018 09:00:00 15,1 10,8 16 9 25 14 WZW 1023,8 10
11.08.2018 08:00:00 13,9 11,7 16 9 - - WZW 1023,3 10
11.08.2018 07:00:00 13,1 11,5 15 8 22 12 WZW 1022,8 10
11.08.2018 06:00:00 13,9 11,0 15 8 25 14 WZW 1022,3 10
11.08.2018 05:00:00 14,5 10,5 16 9 - - WZW 1021,9 10
11.08.2018 04:00:00 15,0 10,7 16 9 40 21 W 1021,7 10
11.08.2018 03:00:00 15,9 11,1 22 12 36 19 W 1021,4 10
11.08.2018 02:00:00 17,0 7,9 24 13 - - WZW 1021,2 10
11.08.2018 01:00:00 17,3 7,2 22 12 32 18 ZZW 1020,9 10
11.08.2018 00:00:00 17,3 6,9 21 11 29 16 ZZW 1020,7 10
10.08.2018 23:00:00 17,9 7,2 21 11 - - ZZW 1020,9 10
10.08.2018 22:00:00 18,7 7,4 18 10 36 19 ZZW 1021,0 10
10.08.2018 21:00:00 19,8 6,4 22 12 40 21 ZZW 1020,8 10
10.08.2018 20:00:00 20,7 5,6 26 14 - - ZW 1020,7 10
10.08.2018 19:00:00 20,8 6,4 24 13 43 23 ZZW 1020,9 10
10.08.2018 18:00:00 20,8 7,1 28 15 40 21 ZZW 1021,3 10
10.08.2018 17:00:00 21,4 7,0 29 16 - - ZZW 1021,7 10
10.08.2018 16:00:00 20,8 5,4 31 17 47 25 ZZW 1022,1 10
10.08.2018 15:00:00 21,2 6,4 26 14 61 33 ZW 1022,2 10
10.08.2018 14:00:00 20,7 6,7 29 16 - - ZW 1022,5 10
10.08.2018 13:00:00 18,5 7,1 26 14 43 23 ZW 1022,9 10
10.08.2018 12:00:00 18,2 7,9 26 14 40 21 ZW 1023,0 10
10.08.2018 11:00:00 18,3 9,3 24 13 - - WZW 1022,8 10
10.08.2018 10:00:00 16,4 10,3 24 13 40 21 ZW 1022,8 10
10.08.2018 09:00:00 15,3 11,2 24 13 32 18 ZZW 1022,5 10
10.08.2018 08:00:00 13,5 11,1 22 12 - - ZZW 1022,1 10
10.08.2018 07:00:00 12,7 11,1 18 10 29 16 ZZW 1021,7 10
10.08.2018 06:00:00 12,8 11,2 15 8 25 14 ZZW 1021,1 10
10.08.2018 05:00:00 13,6 11,4 16 9 - - ZW 1020,8 10
10.08.2018 04:00:00 13,8 11,6 18 10 29 16 ZW 1020,6 10
10.08.2018 03:00:00 13,3 11,6 18 10 29 16 ZW 1020,2 10
10.08.2018 02:00:00 13,6 11,6 21 11 - - WZW 1019,3 10
10.08.2018 01:00:00 14,2 11,6 24 13 43 23 WZW 1018,6 10
10.08.2018 00:00:00 14,0 12,9 28 15 43 23 WZW 1017,5 6
09.08.2018 23:00:00 14,9 12,1 28 15 - - WZW 1016,2 10
09.08.2018 22:00:00 15,4 12,1 34 18 54 29 WZW 1014,7 10
09.08.2018 21:00:00 17,3 13,4 39 21 54 29 WZW 1012,7 10
09.08.2018 20:00:00 19,2 14,9 35 19 - - ZW 1011,1 10
09.08.2018 19:00:00 20,0 16,9 36 19 72 39 ZW 1009,9 20
09.08.2018 18:00:00 22,7 16,2 31 17 61 33 ZZW 1008,1 10
09.08.2018 17:00:00 22,8 17,0 31 17 - - ZZW 1007,7 10
09.08.2018 16:00:00 22,2 17,7 24 13 47 25 ZZW 1007,9 10
09.08.2018 15:00:00 20,7 19,2 9 5 14 8 Z 1008,2 8
09.08.2018 14:00:00 18,9 17,7 4 2 - - - 1008,7 5
09.08.2018 13:00:00 19,4 18,1 9 5 32 18 NW 1008,7 8
09.08.2018 12:00:00 19,8 16,2 22 12 54 29 ONO 1009,0 10
09.08.2018 11:00:00 19,2 16,9 18 10 - - ONO 1010,0 10
09.08.2018 10:00:00 16,0 14,9 13 7 50 27 ONO 1011,9 4,0
09.08.2018 09:00:00 19,9 13,0 11 6 29 16 O 1011,8 10
09.08.2018 08:00:00 17,9 12,7 5 3 - - ZO 1012,7 10
09.08.2018 07:00:00 16,7 12,1 11 6 43 23 ZO 1013,2 10
09.08.2018 06:00:00 16,8 12,3 11 6 50 27 OZO 1013,7 10
09.08.2018 05:00:00 16,3 12,0 9 5 - - - 1014,0 10
09.08.2018 04:00:00 16,6 12,2 11 6 25 14 OZO 1014,6 10
09.08.2018 03:00:00 17,3 12,0 11 6 32 18 OZO 1015,2 10
09.08.2018 02:00:00 17,8 11,3 8 4 - - ZO 1015,7 10
09.08.2018 01:00:00 18,0 10,9 5 3 7 4 ONO 1015,8 10
09.08.2018 00:00:00 18,3 10,8 4 2 11 6 ONO 1015,9 10
08.08.2018 23:00:00 18,2 11,2 8 4 - - NO 1016,0 10
08.08.2018 22:00:00 18,8 11,5 5 3 14 8 NNW 1015,9 10
08.08.2018 21:00:00 20,6 11,0 9 5 18 10 WNW 1015,2 10
08.08.2018 20:00:00 21,9 11,0 11 6 - - W 1014,6 10
08.08.2018 19:00:00 23,1 12,4 15 8 32 18 W 1014,4 10
08.08.2018 18:00:00 23,3 12,0 21 11 32 18 WZW 1014,5 10
08.08.2018 17:00:00 22,8 12,2 24 13 - - W 1014,5 10

tt = temperatuur
td = dauwpunt
ff = windsnelheid
fx = windstoten
dd = windrichting
ppp = luchtdruk
vv = zicht

Weerstations in de omgeving